Home > Weather > Wichita > Past weeks

Flag for USA Past Weather in Wichita, Kansas, USA — Yesterday and Last 2 Weeks

Now
89 °F

Scattered clouds.


Feels Like: 95 °F
Forecast: 75 / 92 °F
Wind: 3 mph from North

Location: Wichita Mid-Continent Airport

Current Time: Jul 28, 2016 at 11:42:07 AM

Latest Report: Jul 28, 2016 at 10:53 AM


Visibility: 10 mi

Pressure: 29.93 "Hg

Humidity: 55%

Dew Point: 71 °F

Location of WichitaLocation

Past Weather in Wichita — Graph

°F

Wichita Temperature Yesterday

Maximum temperature yesterday: 94 °F (at 4:53 PM)
Minimum temperature yesterday: 75 °F (at 4:53 AM)
Average temperature yesterday: 84 °F

High & Low Weather Summary for the Past Weeks

 TemperatureHumidityPressure
High104 °F (Jul 22, 3:53 PM)93% (Jul 15, 12:53 AM)30.16 "Hg (Jul 15, 12:53 AM)
Low67 °F (Jul 15, 4:53 AM)24% (Jul 22, 5:53 PM)29.75 "Hg (Jul 23, 6:53 PM)
Average85 °F62%29.95 "Hg
* Reported Jul 13 11:53 AM — Jul 28 9:53 AM, Wichita, Weather by CustomWeather, © 2016

Note: Actual official high and low records may vary slightly from our data, if they occured in-between our weather recording intervals... More about our weather records

Advertising

Wichita Weather History for the Previous 24 Hours

Scroll right to see more
 ConditionsComfort  
Time TempWeatherWind HumidityBarometerVisibility
9:53 AM
Thu, Jul 28
85 °FPartly sunny.10 mph59%29.92 "Hg10 mi
8:53 AM83 °FBroken clouds.6 mph61%29.93 "Hg10 mi
7:53 AM80 °FBroken clouds.10 mph74%29.95 "Hg10 mi
6:53 AM75 °FPassing clouds.6 mph85%29.96 "Hg10 mi
5:53 AM73 °FPartly cloudy.5 mph90%29.94 "Hg10 mi
4:53 AM74 °FPartly cloudy.3 mph88%29.92 "Hg10 mi
3:53 AM75 °FPassing clouds.3 mph88%29.92 "Hg10 mi
2:53 AM76 °FPassing clouds.No wind88%29.93 "Hg10 mi
1:53 AM75 °FPassing clouds.No wind88%29.92 "Hg10 mi
12:53 AM78 °FPassing clouds.3 mph82%29.93 "Hg10 mi
11:53 PM
Wed, Jul 27
82 °FPassing clouds.3 mph72%29.94 "Hg10 mi
10:53 PM83 °FPassing clouds.6 mph68%29.93 "Hg10 mi
9:53 PM84 °FPassing clouds.7 mph63%29.90 "Hg10 mi
8:53 PM86 °FScattered clouds.8 mph59%29.88 "Hg10 mi
7:53 PM88 °FPassing clouds.6 mph52%29.87 "Hg10 mi
6:53 PM92 °FBroken clouds.8 mph46%29.87 "Hg10 mi
5:53 PM91 °FBroken clouds.8 mph47%29.88 "Hg10 mi
4:53 PM94 °FBroken clouds.10 mph46%29.88 "Hg10 mi
3:53 PM93 °FPartly sunny.8 mph46%29.89 "Hg10 mi
2:53 PM93 °FScattered clouds.No wind46%29.91 "Hg10 mi
1:53 PM92 °FScattered clouds.5 mph52%29.94 "Hg10 mi
12:53 PM90 °FPartly sunny.No wind56%29.95 "Hg10 mi
11:53 AM86 °FBroken clouds.3 mph63%29.94 "Hg10 mi
Weather by CustomWeather, © 2016

See weather overviewHow to use our weather pages